Wind_Speed
33 33 32 32 32 32 31 31 31 31 30 30 29 29 29 28 29 28 28 28 27 26 26 26 26 26 25 25 24 23 23 22 22 21 21 21 21 20 20 19 19 18 18
36 36 35 35 34 35 35 34 33 33 33 32 31 31 31 31 31 30 30 30 30 29 29 28 28 28 28 27 27 26 25 25 24 24 23 23 23 23 23 22 21 21 20
39 38 38 38 37 37 37 37 36 36 36 35 34 34 33 33 33 32 32 32 32 32 31 31 30 30 30 30 29 28 28 27 27 26 26 26 25 25 25 25 25 23 22
41 41 41 40 40 40 39 39 39 38 38 38 37 37 36 35 35 34 34 34 34 34 33 33 33 32 32 32 31 31 30 30 29 28 28 28 28 27 27 27 27 26 25
42 42 43 43 43 43 42 42 42 41 41 41 40 39 39 38 37 37 37 36 36 36 36 36 35 35 34 34 34 33 33 32 32 31 31 30 30 30 30 29 29 28 28
44 44 45 45 45 45 45 45 44 44 44 43 43 42 41 41 39 39 39 38 38 38 38 38 38 37 37 36 36 35 35 35 34 34 33 33 33 33 32 32 32 31 30
45 45 46 47 47 47 47 47 47 47 46 46 45 44 43 43 43 42 41 41 40 40 40 40 41 40 40 39 39 38 38 38 38 37 36 36 35 35 35 35 34 34 33
45 45 46 47 48 48 48 48 49 49 49 48 47 47 46 45 45 44 44 44 43 43 43 43 43 43 43 42 42 42 41 41 40 40 39 38 38 38 37 37 36 36 36
47 47 47 47 48 48 48 48 48 49 49 49 49 49 48 47 47 46 46 46 46 46 46 45 45 46 45 45 44 44 44 43 43 42 42 41 40 40 39 39 39 38 38
48 49 49 49 48 49 49 49 50 50 50 50 50 50 50 49 49 49 48 48 48 48 48 48 48 48 48 47 47 46 46 46 45 45 45 44 43 43 43 42 42 41 41
49 49 49 49 49 49 49 49 50 50 50 50 50 51 52 51 51 51 50 50 50 51 51 51 51 51 51 50 50 50 49 49 48 48 47 47 46 46 46 45 45 45 44
48 49 50 49 49 48 48 49 49 49 49 49 50 51 52 52 52 53 52 52 52 52 52 53 53 53 54 54 53 53 53 52 51 51 50 50 49 49 48 49 48 48 47
47 48 49 49 49 49 48 48 48 49 50 50 50 50 51 52 53 53 53 53 53 52 53 53 54 55 55 56 56 56 55 55 55 54 54 53 53 52 52 52 51 51 50
47 47 48 49 49 50 50 49 49 50 50 50 50 51 52 52 52 53 53 54 54 53 53 53 54 55 57 57 58 58 58 58 58 57 57 57 56 56 55 55 55 54 54
47 48 48 49 50 50 50 50 50 50 50 51 51 52 52 53 53 53 53 54 55 54 53 53 54 55 57 58 59 60 59 59 60 60 60 60 59 59 58 58 57 57 57
47 48 48 48 49 50 51 50 50 50 51 51 52 52 53 53 54 54 54 54 55 55 55 54 55 56 57 57 58 59 59 59 60 61 62 62 62 62 61 60 60 59 59
48 48 49 50 50 50 50 51 51 52 52 53 53 53 53 53 54 54 55 55 56 56 56 55 56 57 57 58 58 59 60 59 61 61 62 63 63 63 63 63 62 62 62
49 50 50 51 50 50 51 52 52 53 53 53 54 54 55 55 55 56 56 56 57 57 57 56 56 57 58 58 59 60 60 60 61 62 62 63 64 64 64 64 64 63 64
50 51 51 51 52 52 53 53 53 53 54 54 55 56 56 57 57 57 56 55 57 57 58 58 57 58 59 60 60 62 62 61 62 62 63 63 64 64 64 65 65 64 65
50 50 51 51 52 52 53 53 54 54 54 55 56 57 57 57 57 56 56 57 57 57 58 59 58 59 59 60 60 62 62 63 62 62 63 63 64 64 64 65 65 65 65
49 49 50 50 51 51 53 53 54 54 54 54 55 56 57 57 57 57 57 57 57 57 58 59 59 59 59 60 61 62 63 63 63 62 63 63 63 63 63 63 63 63 64
47 48 49 50 50 51 51 52 53 53 54 53 53 54 55 55 56 58 58 58 58 58 59 59 59 60 60 61 62 63 63 62 62 62 62 61 62 62 62 62 62 63 63
48 49 49 49 50 51 51 52 52 53 52 53 54 54 55 55 56 57 58 58 58 59 59 60 60 60 61 61 61 62 63 63 62 61 62 61 62 62 62 62 62 62 62
48 48 48 48 49 51 51 51 51 51 51 53 53 54 54 55 55 56 56 57 58 58 58 59 59 59 59 60 61 61 61 62 61 61 62 61 60 60 60 59 60 60 61
46 47 47 48 48 49 51 51 52 52 52 53 53 54 55 55 56 56 57 57 57 58 58 58 58 58 58 58 59 61 61 62 61 60 61 61 59 59 59 58 58 58 59
44 45 46 46 47 49 50 51 51 52 52 52 52 53 54 55 55 56 57 56 56 57 57 57 57 57 58 57 58 59 60 61 61 61 60 60 60 60 59 58 58 58 58
Wind_Direction
258 258 258 258 259 260 260 260 260 260 260 261 261 261 261 262 261 260 257 255 255 255 254 253 253 254 255 256 257 258 259 258 257 257 257 257 257 256 256 257 258 259 260
260 260 259 259 260 260 260 260 260 259 260 260 261 261 261 262 262 261 258 256 255 255 255 255 254 254 254 255 256 257 259 259 258 257 257 257 258 258 257 258 259 259 259
260 260 259 259 260 260 260 261 260 260 260 260 261 261 261 261 262 260 259 256 255 255 255 255 255 254 254 255 255 256 257 259 259 258 258 258 259 258 258 258 259 259 259
260 260 260 260 259 260 260 261 261 261 261 261 261 261 261 261 261 260 259 258 256 255 255 255 255 255 255 255 255 255 256 257 258 258 258 259 259 259 259 259 259 259 260
260 260 260 260 260 260 260 261 261 262 262 261 261 261 262 262 261 260 259 259 257 256 256 255 255 255 255 255 255 255 255 256 257 257 258 259 259 259 259 260 259 260 260
260 260 260 260 260 260 260 260 261 262 262 262 261 261 262 261 261 261 260 259 258 256 256 255 255 255 255 255 255 256 256 256 257 257 258 258 259 259 259 260 260 260 260
261 261 260 260 260 260 260 260 261 261 262 262 261 261 261 262 262 261 261 259 258 257 256 256 255 255 255 255 255 256 256 256 256 257 257 258 258 259 259 259 260 260 261
260 261 261 261 260 260 260 260 260 261 262 262 262 261 260 260 261 261 260 259 258 258 257 256 256 256 256 256 256 256 256 256 257 257 257 258 258 258 258 259 259 260 261
260 260 260 261 261 260 261 261 261 261 261 262 263 262 260 259 259 260 260 259 259 258 257 256 256 256 256 256 256 256 256 257 257 257 258 258 257 257 257 258 259 259 260
260 260 261 262 262 262 263 262 262 262 262 262 262 262 261 260 260 259 259 259 259 259 258 257 256 256 256 256 256 256 257 257 257 258 258 258 258 258 257 258 259 259 260
261 261 261 262 262 263 263 263 262 262 262 262 262 262 262 262 261 260 259 259 260 259 259 259 257 256 256 256 257 257 257 257 257 258 259 259 258 258 258 259 259 260 260
262 262 261 261 262 262 262 262 262 261 261 262 262 262 263 263 263 262 261 260 260 260 260 260 259 258 257 257 257 257 257 257 258 258 258 259 259 259 259 260 260 260 260
262 261 262 262 261 262 262 262 263 262 262 262 262 263 263 264 263 263 262 261 261 261 261 261 261 259 257 257 257 257 257 257 258 258 258 259 259 259 259 259 260 260 260
263 262 262 262 262 262 262 263 263 263 262 262 263 263 264 265 265 263 263 262 262 262 261 261 260 260 258 258 257 257 258 258 258 258 258 259 259 259 259 259 260 260 260
263 262 262 262 263 263 263 264 265 264 264 263 263 264 264 265 265 265 264 264 263 262 262 262 261 261 260 258 258 258 258 258 259 259 259 259 259 258 259 260 260 260 259
263 263 262 263 264 264 264 265 265 266 265 264 264 265 266 265 265 266 266 265 264 264 263 261 262 261 260 259 258 258 258 259 259 259 259 259 259 259 259 260 260 260 260
264 264 264 264 265 265 265 266 266 267 267 266 265 265 265 265 266 267 267 266 265 264 264 263 262 262 261 259 258 258 258 259 259 260 260 260 259 259 260 260 260 260 261
265 265 265 265 265 266 267 267 268 268 268 267 266 265 266 266 267 267 267 266 265 265 264 263 262 262 261 260 260 259 258 259 259 260 260 260 260 260 260 260 260 261 261
266 265 265 265 266 266 267 268 269 268 268 268 267 266 266 267 267 268 267 267 266 265 264 264 263 263 262 262 261 260 259 259 260 261 260 260 261 261 261 260 260 261 261
266 266 265 265 266 267 267 268 268 268 268 268 267 267 266 266 267 267 267 266 265 264 264 264 263 263 263 263 262 261 260 261 261 261 261 261 261 261 261 261 261 261 262
266 265 264 265 266 267 267 268 268 268 269 269 268 267 267 266 266 266 267 267 267 266 265 265 264 264 264 264 264 263 262 262 262 262 261 261 261 261 262 262 261 262 262
266 265 266 266 267 267 268 268 269 269 269 269 269 268 267 267 267 267 267 267 267 267 266 266 266 265 265 266 265 265 264 263 262 262 261 261 261 261 262 262 262 262 261
268 267 267 268 268 267 268 269 269 269 268 269 270 268 267 267 267 267 267 266 267 267 266 266 266 267 267 267 266 266 265 264 263 262 262 261 261 262 262 262 263 262 261
269 269 269 269 269 269 269 269 269 268 269 270 270 270 268 267 267 268 268 267 267 266 267 267 267 268 267 267 266 266 265 264 263 262 262 261 261 261 261 261 261 261 261
269 269 269 270 270 270 270 270 270 269 270 271 271 271 269 268 267 268 268 268 267 267 267 268 268 267 267 267 267 266 264 264 263 262 262 262 261 261 261 261 261 262 262
270 270 270 271 272 272 271 271 270 271 272 271 271 271 270 269 268 268 268 268 268 268 267 267 267 267 267 267 267 266 265 263 262 262 261 262 262 262 261 261 262 262 262
Height
5781 5782 5784 5785 5786 5787 5789 5790 5791 5792 5793 5794 5795 5797 5798 5799 5800 5801 5802 5803 5805 5806 5807 5808 5810 5811 5812 5814 5815 5816 5817 5818 5819 5820 5821 5822 5823 5824 5825 5825 5826 5827 5827
5773 5774 5776 5777 5778 5780 5781 5782 5784 5785 5786 5787 5789 5790 5791 5792 5793 5794 5795 5797 5798 5799 5801 5802 5803 5805 5806 5808 5809 5810 5811 5812 5814 5815 5816 5817 5818 5819 5820 5821 5821 5822 5823
5764 5765 5767 5768 5770 5771 5773 5774 5776 5777 5778 5780 5781 5782 5783 5784 5785 5787 5788 5789 5791 5792 5794 5795 5796 5798 5799 5801 5802 5804 5805 5806 5808 5809 5810 5811 5812 5813 5814 5815 5816 5817 5818
5754 5756 5757 5759 5760 5762 5764 5765 5766 5768 5770 5771 5772 5774 5775 5776 5777 5778 5780 5781 5783 5784 5786 5787 5789 5790 5792 5793 5795 5797 5798 5800 5801 5802 5804 5805 5806 5807 5808 5809 5810 5811 5812
5743 5745 5747 5748 5750 5752 5753 5755 5757 5758 5760 5761 5763 5764 5766 5767 5768 5770 5771 5772 5774 5775 5777 5779 5780 5782 5784 5785 5787 5789 5790 5792 5793 5795 5796 5798 5799 5800 5801 5802 5803 5804 5806
5733 5734 5736 5737 5739 5741 5742 5744 5746 5748 5749 5751 5752 5754 5756 5757 5758 5760 5761 5763 5764 5766 5768 5770 5771 5773 5775 5777 5778 5780 5782 5784 5785 5787 5788 5790 5791 5792 5794 5795 5796 5797 5798
5721 5723 5724 5725 5727 5729 5731 5733 5734 5736 5737 5739 5741 5743 5745 5746 5748 5749 5751 5752 5754 5756 5758 5760 5762 5763 5765 5767 5769 5771 5773 5775 5776 5778 5779 5781 5783 5784 5785 5786 5788 5789 5791
5709 5710 5712 5713 5715 5716 5718 5720 5722 5724 5725 5726 5728 5730 5733 5736 5737 5738 5740 5741 5743 5745 5747 5749 5751 5753 5755 5757 5759 5761 5763 5765 5767 5768 5770 5772 5773 5775 5776 5778 5779 5781 5782
5697 5698 5699 5701 5702 5704 5705 5707 5709 5711 5713 5714 5715 5717 5720 5722 5725 5727 5728 5730 5731 5733 5736 5738 5739 5741 5744 5746 5748 5750 5752 5754 5756 5758 5760 5761 5763 5765 5767 5768 5770 5771 5773
5684 5685 5687 5688 5690 5691 5693 5694 5696 5697 5699 5701 5702 5704 5706 5708 5711 5714 5716 5717 5719 5721 5723 5725 5727 5729 5731 5734 5736 5738 5740 5743 5744 5746 5748 5750 5752 5754 5756 5758 5759 5761 5763
5671 5672 5674 5675 5676 5678 5679 5681 5682 5684 5686 5687 5689 5690 5692 5694 5696 5699 5702 5704 5705 5707 5709 5711 5713 5716 5718 5720 5723 5725 5727 5730 5732 5734 5736 5738 5740 5742 5745 5747 5748 5750 5752
5658 5659 5661 5662 5663 5665 5666 5667 5669 5670 5672 5674 5675 5677 5678 5680 5682 5684 5687 5689 5691 5693 5695 5697 5699 5701 5704 5706 5709 5711 5713 5716 5718 5721 5723 5725 5728 5730 5732 5734 5736 5738 5740
5645 5646 5648 5649 5651 5652 5653 5654 5655 5657 5659 5660 5662 5663 5664 5666 5667 5669 5672 5674 5677 5679 5680 5682 5684 5686 5688 5691 5693 5696 5699 5701 5704 5706 5709 5711 5714 5716 5718 5720 5722 5724 5726
5633 5634 5635 5636 5638 5639 5640 5641 5643 5644 5645 5647 5648 5649 5651 5652 5653 5654 5656 5658 5661 5664 5666 5668 5669 5670 5672 5675 5678 5680 5683 5685 5688 5691 5693 5696 5699 5701 5703 5705 5708 5710 5712
5620 5621 5622 5623 5625 5626 5627 5628 5629 5631 5632 5633 5634 5635 5637 5638 5639 5640 5641 5643 5645 5647 5651 5653 5654 5655 5656 5658 5661 5664 5667 5669 5672 5674 5676 5679 5682 5684 5687 5689 5692 5694 5697
5607 5608 5609 5610 5611 5612 5613 5614 5616 5617 5618 5619 5620 5621 5622 5623 5624 5625 5626 5627 5628 5630 5634 5637 5637 5638 5639 5641 5644 5647 5650 5652 5655 5657 5659 5661 5664 5667 5670 5672 5675 5678 5680
5595 5595 5596 5597 5598 5598 5599 5600 5601 5602 5603 5605 5606 5607 5608 5608 5609 5610 5610 5611 5612 5613 5616 5620 5621 5622 5623 5625 5627 5629 5632 5635 5637 5640 5642 5644 5646 5649 5651 5654 5657 5660 5662
5582 5582 5583 5583 5584 5585 5585 5586 5587 5588 5588 5589 5591 5591 5592 5593 5594 5595 5595 5595 5596 5597 5598 5602 5604 5605 5606 5608 5610 5612 5615 5617 5620 5622 5623 5626 5628 5630 5633 5636 5638 5641 5644
5568 5569 5569 5570 5570 5570 5571 5571 5572 5572 5573 5574 5575 5576 5577 5577 5578 5579 5579 5579 5580 5581 5581 5584 5587 5588 5590 5590 5592 5594 5597 5599 5601 5603 5605 5607 5609 5612 5614 5617 5619 5622 5625
5554 5555 5555 5555 5556 5556 5556 5556 5557 5557 5557 5558 5558 5559 5560 5561 5562 5563 5563 5563 5563 5564 5565 5567 5569 5571 5572 5573 5574 5576 5579 5581 5583 5585 5587 5589 5591 5593 5596 5598 5601 5604 5606
5540 5540 5541 5541 5541 5541 5541 5541 5541 5542 5542 5542 5543 5543 5544 5545 5545 5546 5546 5547 5547 5547 5548 5550 5552 5553 5555 5555 5557 5558 5560 5563 5565 5566 5568 5572 5574 5576 5577 5579 5581 5584 5586
5526 5527 5527 5527 5527 5526 5526 5526 5526 5526 5526 5527 5527 5527 5528 5528 5529 5529 5529 5530 5530 5531 5532 5533 5535 5536 5538 5538 5539 5540 5541 5544 5548 5551 5550 5553 5555 5557 5560 5562 5564 5565 5567
5513 5513 5512 5512 5512 5512 5511 5511 5511 5511 5511 5512 5512 5512 5512 5512 5512 5512 5512 5513 5513 5514 5515 5517 5518 5519 5520 5521 5521 5522 5522 5524 5528 5531 5531 5535 5537 5539 5542 5543 5545 5547 5549
5499 5499 5499 5498 5498 5497 5496 5496 5496 5496 5496 5496 5496 5496 5496 5496 5496 5496 5496 5496 5497 5498 5499 5499 5500 5502 5501 5501 5501 5502 5504 5506 5510 5512 5512 5516 5519 5521 5524 5525 5526 5528 5530
5486 5485 5485 5484 5484 5482 5481 5481 5481 5481 5481 5481 5481 5480 5480 5480 5480 5479 5480 5480 5481 5481 5481 5481 5482 5483 5483 5484 5483 5483 5485 5487 5491 5494 5494 5497 5500 5502 5505 5508 5509 5510 5512
5472 5471 5471 5470 5469 5468 5467 5466 5466 5466 5466 5466 5465 5464 5464 5463 5463 5462 5463 5464 5465 5465 5465 5465 5466 5466 5466 5467 5466 5466 5467 5469 5471 5476 5478 5478 5481 5483 5487 5491 5491 5493 5494